Location: Sungai Dangang
(2.7500°N, 113.8333°E)
Time: 05:03:23
(UTC+00:00)

CZ-2C R/B - Pass Details

Date: 16 May 2021
Orbit: 390 x 580 km, 35.0° (Epoch: 16 June)

Event Time Altitude Azimuth Distance (km) Brightness Sun altitude
Exits shadow 20:26:57 25° 54° (NE) 826 2.9 -25.8°
Drops below altitude 10° 20:29:11 10° 96° (E) 1,424 4.2 -25.2°
Sets 20:31:30 0° 109° (ESE) 2,301 5.2 -24.7°
